Location: Burla
(50.9568°N, 10.4983°E)
Time: 23:11:37
(UTC+00:00)

Cosmos 2181 Rocket - Pass Details

Date: 18 January 2026
Orbit: 952 x 1013 km, 82.9° (Epoch: 16 February)

Event Time Altitude Azimuth Distance (km) Brightness Sun altitude
Rises 04:45:58 0° 346° (NNW) 3,723 6.9 -22.4°
Reaches altitude 10° 04:48:34 10° 341° (NNW) 2,778 6.1 -22.0°
Maximum altitude 04:54:38 48° 270° (W) 1,300 4.2 -21.0°
Drops below altitude 10° 05:00:43 10° 198° (SSW) 2,786 6.3 -20.1°
Sets 05:03:20 0° 193° (SSW) 3,735 7.0 -19.7°
